Weather History for KBYI - August, 2013

Change the Weather History Date:

Tuesday, August 20, 2013

  Actual Average Record
Temperature  
Mean Temperature 75 °F 68 °F  
Max Temperature 89 °F 84 °F 98 °F (1995)
Min Temperature 60 °F 51 °F 34 °F (1964)
Degree Days  
Heating Degree Days 0 1  
Month to date heating degree days 0 13  
Since 1 June heating degree days 101 169  
Since 1 July heating degree days 0 35  
Cooling Degree Days 10 4  
Month to date cooling degree days 133 101  
Year to date cooling degree days 507 314  
Since 1 June cooling degree days 497 308  
Growing Degree Days 24 (Base 50)    
Moisture  
Dew Point 51 °F    
Average Humidity 46    
Maximum Humidity 63    
Minimum Humidity 29    
Precipitation  
Precipitation 0.00 in 0.02 in 1.18 in (1968)
Month to date precipitation T 0.24  
Year to date precipitation 2.33 6.60  
Sea Level Pressure  
Sea Level Pressure 29.90 in    
Wind  
Wind Speed 9 mph (SW)    
Max Wind Speed 25 mph    
Max Gust Speed 32 mph    
Visibility 10 miles    
Events      
T = Trace of Precipitation, MM = Missing Value Source: NWS Daily Summary

Daily Weather History Graph

Daily Weather History Graph

Search for Another Location

Airport or City:

Trip Planner

Search our weather history database for the weather conditions in past years. The results will help you decide how hot, cold, wet, or windy it might be!

Date:

Astronomy

Aug. 20, 2013 Rise Set
Actual Time 6:47 AM MDT 8:28 PM MDT
Civil Twilight 6:17 AM MDT 8:58 PM MDT
Nautical Twilight 5:41 AM MDT 9:34 PM MDT
Astronomical Twilight 5:02 AM MDT 10:12 PM MDT
Moon 8:00 PM MDT (8/20) 6:22 AM MDT (8/20)
Length of Visible Light 14h 40m
Length of Day
13h 40m
Full, 100% of the Moon is Illuminated
Aug 20
Full
Aug 20
Full
Aug 28
Last Quarter
Sep 5
New
Sep 12
First Quarter

Hourly Weather History & Observations

Time (MDT) Temp. Heat Index Dew Point Humidity Pressure Visibility Wind Dir Wind Speed Gust Speed Precip Events Conditions
12:53 AM 69.1 °F - 51.1 °F 53% 29.87 in 10.0 mi SSW 8.1 mph - N/A   Partly Cloudy
1:53 AM 69.1 °F - 50.0 °F 51% 29.86 in 10.0 mi SSW 8.1 mph - N/A   Scattered Clouds
2:53 AM 66.0 °F - 50.0 °F 56% 29.86 in 10.0 mi SW 4.6 mph - N/A   Scattered Clouds
3:53 AM 64.0 °F - 48.0 °F 56% 29.86 in 10.0 mi SSW 9.2 mph - N/A   Clear
4:53 AM 64.9 °F - 48.0 °F 54% 29.87 in 10.0 mi SSW 9.2 mph - N/A   Clear
5:53 AM 63.0 °F - 48.0 °F 58% 29.88 in 10.0 mi Calm Calm - N/A   Clear
6:53 AM 63.0 °F - 46.9 °F 56% 29.91 in 10.0 mi SSW 5.8 mph - N/A   Clear
7:53 AM 64.0 °F - 52.0 °F 65% 29.91 in 10.0 mi Calm Calm - N/A   Clear
8:53 AM 68.0 °F - 54.0 °F 61% 29.93 in 10.0 mi Calm Calm - N/A   Clear
9:53 AM 75.0 °F - 51.1 °F 43% 29.93 in 10.0 mi WSW 5.8 mph - N/A   Clear
10:53 AM 77.0 °F - 46.0 °F 33% 29.93 in 10.0 mi West 6.9 mph - N/A   Clear
11:53 AM 79.0 °F - 48.0 °F 34% 29.93 in 10.0 mi Variable 5.8 mph - N/A   Clear
12:53 PM 82.9 °F - 48.0 °F 29% 29.91 in 10.0 mi Variable 5.8 mph - N/A   Clear
1:26 PM 84.2 °F - 46.4 °F 27% 30.04 in 5.0 mi Calm Calm - N/A   Haze
1:36 PM 84.2 °F - 48.2 °F 29% 30.03 in 8.0 mi WNW 5.8 mph - N/A   Clear
1:53 PM 86.0 °F - 50.0 °F 29% 29.87 in 10.0 mi NW 5.8 mph - N/A   Clear
2:53 PM 86.0 °F - 51.1 °F 30% 29.86 in 10.0 mi West 4.6 mph - N/A   Clear
3:53 PM 82.9 °F 81.8 °F 53.1 °F 36% 29.86 in 10.0 mi West 6.9 mph - N/A   Clear
4:53 PM 75.9 °F - 55.0 °F 48% 29.90 in 8.0 mi South 23.0 mph 29.9 mph N/A   Partly Cloudy
5:53 PM 75.0 °F - 57.0 °F 53% 29.89 in 10.0 mi SW 12.7 mph - N/A   Clear
6:53 PM 78.1 °F - 53.1 °F 42% 29.86 in 10.0 mi South 9.2 mph - N/A   Clear
7:53 PM 75.0 °F - 52.0 °F 44% 29.87 in 10.0 mi SSW 17.3 mph 23.0 mph N/A   Clear
8:53 PM 72.0 °F - 54.0 °F 53% 29.89 in 10.0 mi SSW 17.3 mph - N/A   Clear
9:53 PM 73.0 °F - 51.1 °F 46% 29.88 in 10.0 mi SSW 17.3 mph 26.5 mph N/A   Clear
10:53 PM 73.9 °F - 50.0 °F 43% 29.88 in 10.0 mi SSW 15.0 mph 19.6 mph N/A   Clear
11:53 PM 71.1 °F - 51.1 °F 49% 29.88 in 10.0 mi South 11.5 mph - N/A   Clear